Regional Weather Roundup
Issued by NWS

Home | Current Version | Previous Version | Graphics & Text | Print | Product List | Glossary On
Versions: 1 2 3 4 5 6 7 8 9 10 11 12 13 14 15 16 17 18 19 20 21 22 23 24 25 26 27 28 29 30 31 32 33 34 35 36 37 38 39 40 41 42 43 44 45 46 47 48 49 50
000
ASUS43 KBIS 300210
RWRND

NORTH DAKOTA REGIONAL WEATHER ROUNDUP
NATIONAL WEATHER SERVICE BISMARCK ND
900 PM CDT WED MAR 29 2017

NOTE: "FAIR" INDICATES FEW OR NO CLOUDS BELOW 12,000 FEET WITH NO
SIGNIFICANT WEATHER AND/OR OBSTRUCTIONS TO VISIBILITY.


NDZ001>003-009>011-017-300300-
NORTHWEST NORTH DAKOTA

CITY           SKY/WX    TMP DP  RH WIND       PRES   REMARKS
WILLISTON      FAIR      50  31  48 W8        29.85S
MINOT          FAIR      46  43  89 SE3       29.85F
MINOT AFB      MOCLDY    45  43  93 S7        29.84F
$$

NDZ018>021-031>035-040>046-300300-
SOUTHWEST NORTH DAKOTA

CITY           SKY/WX    TMP DP  RH WIND       PRES   REMARKS
BISMARCK       CLOUDY    55  38  52 S12       29.91F
DICKINSON      FAIR      50  28  42 NW5       29.84F
GARRISON         N/A     47  37  68 CALM      29.85F
HETTINGER ARPT CLOUDY    51  38  60 S12       29.90F
$$

NDZ004>008-012>016-024-026-027-054-300300-
NORTHEAST NORTH DAKOTA

CITY           SKY/WX    TMP DP  RH WIND       PRES   REMARKS
GRAND FORKS    PTCLDY    51  42  71 S16       29.99S
GRND FRKS AFB  CLOUDY    51  39  63 S21       29.98F
DEVILS LAKE    CLOUDY    50  38  63 S12       29.92F
$$

NDZ022-023-025-028>030-036>039-047>053-300300-
SOUTHEAST NORTH DAKOTA

CITY           SKY/WX    TMP DP  RH WIND       PRES   REMARKS
FARGO          CLEAR     50  37  61 S22G29    30.05S
JAMESTOWN      FAIR      49  36  61 S14       29.96F
$$





USA.gov is the U.S. government's official web portal to all federal, state and local government web resources and services.